Regional Weather Roundup
Issued by NWS

Home | Current Version | Previous Version | Graphics & Text | Print | Product List | Glossary On
Versions: 1 2 3 4 5 6 7 8 9 10 11 12 13 14 15 16 17 18 19 20 21 22 23 24 25 26 27 28 29 30 31 32 33 34 35 36 37 38 39 40 41 42 43 44 45 46 47 48 49 50
000
ASUS45 KBOI 281710
RWRID

IDAHO REGIONAL WEATHER ROUNDUP
NATIONAL WEATHER SERVICE BOISE ID
1100 AM MDT THU MAY 28 2015

NOTE: "FAIR" INDICATES FEW OR NO CLOUDS BELOW 12000 FEET
WITH NO SIGNIFICANT WEATHER AND/OR OBSTRUCTIONS TO VISIBILITY

IDZ012-014-281800-
SOUTHWEST IDAHO


CITY           SKY/WX    TMP DP  RH WIND       PRES   REMARKS
BOISE          SUNNY     66  43  43 VRB6      30.10S
CALDWELL       SUNNY     66  45  45 W7        30.11F
MOUNTAIN HOME  SUNNY     69  42  36 NW12G18   30.10S
$$

IDZ016-017-281800-
SOUTHCENTRAL IDAHO


CITY           SKY/WX    TMP DP  RH WIND       PRES   REMARKS
BURLEY         SUNNY     61  47  59 W8        30.12R
JEROME         SUNNY     58  48  69 SW3       30.13S
TWIN FALLS     SUNNY     65  44  46 W10       30.11R
$$

IDZ019>023-281800-
SOUTHEAST IDAHO


CITY           SKY/WX    TMP DP  RH WIND       PRES   REMARKS
IDAHO FALLS    PTSUNNY   49  44  83 E7        30.15S
POCATELLO      PTSUNNY   58  49  72 VRB5      30.14S
REXBURG        PTSUNNY   55  46  71 SW6       30.14S
$$

IDZ006-010-011-018-031-032-281800-
CENTRAL IDAHO MOUNTAINS


CITY           SKY/WX    TMP DP  RH WIND       PRES   REMARKS
MCCALL         SUNNY     59  39  47 VRB3      30.14F
HAILEY         MOSUNNY   57  45  62 E7        30.16S
STANLEY          N/A     44  38  79 N3        30.22S
SALMON         PTSUNNY   57  46  67 CALM      30.13F
CHALLIS        MOSUNNY   58  41  53 VRB3      30.15F
$$

IDZ002-004-006-007-026-281800-
NORTHERN IDAHO


CITY           SKY/WX    TMP DP  RH WIND       PRES   REMARKS
LEWISTON       SUNNY     67  50  54 NE8       30.10F
LOWELL           N/A     62  49  62 N3        30.12
COEUR D`ALENE  MOSUNNY   68  50  52 S7        30.10R
MULLAN PASS    PTSUNNY   53  45  74 NW5       30.19S
$$


USA.gov is the U.S. government's official web portal to all federal, state and local government web resources and services.